| time (UTC) | temp F | wind direction | speed MPH | gust MPH | rain 1hr in | rain 24hr in | rain mn in | humidity % | barometer mb |
| 20260506231525 | 44 | 280 | 2.0 | 4.0 | 0.00 | 0.78 | 0.49 | 94 | 1010.7 |
| 20260506230024 | 44 | 271 | 2.0 | 4.0 | 0.00 | 0.78 | 0.49 | 94 | 1010.2 |
| 20260506224526 | 44 | 289 | 1.0 | 3.0 | 0.00 | 0.78 | 0.49 | 95 | 1010.1 |
| 20260506223023 | 44 | 287 | 2.0 | 3.0 | 0.00 | 0.78 | 0.49 | 95 | 1010.4 |
| 20260506221522 | 44 | 250 | 2.0 | 5.0 | 0.00 | 0.78 | 0.49 | 95 | 1010.5 |
| 20260506220021 | 44 | 253 | 3.0 | 6.0 | 0.00 | 0.78 | 0.49 | 96 | 1010.6 |
| 20260506214519 | 44 | 273 | 3.0 | 7.0 | 0.00 | 0.78 | 0.49 | 96 | 1010.5 |
| 20260506213017 | 44 | 312 | 3.0 | 7.0 | 0.00 | 0.78 | 0.49 | 96 | 1010.2 |
| 20260506211520 | 44 | 283 | 3.0 | 7.0 | 0.00 | 0.78 | 0.49 | 97 | 1010.2 |
| 20260506210017 | 44 | 254 | 2.0 | 8.0 | 0.00 | 0.79 | 0.49 | 97 | 1010.2 |
| 20260506204516 | 44 | 281 | 4.0 | 8.0 | 0.00 | 0.79 | 0.49 | 97 | 1009.9 |
| 20260506203013 | 44 | 281 | 3.0 | 8.0 | 0.00 | 0.79 | 0.49 | 98 | 1009.8 |
| 20260506201514 | 44 | 292 | 4.0 | 10.0 | 0.00 | 0.79 | 0.49 | 98 | 1009.5 |
| 20260506200012 | 43 | 302 | 3.0 | 9.0 | 0.00 | 0.79 | 0.49 | 98 | 1009.5 |
| 20260506194511 | 43 | 263 | 3.0 | 9.0 | 0.00 | 0.79 | 0.49 | 98 | 1009.6 |
| 20260506193010 | 44 | 307 | 5.0 | 9.0 | 0.00 | 0.79 | 0.49 | 98 | 1009.6 |
| 20260506191510 | 44 | 294 | 3.0 | 8.0 | 0.00 | 0.79 | 0.49 | 98 | 1009.4 |
| 20260506190008 | 44 | 311 | 3.0 | 8.0 | 0.01 | 0.83 | 0.49 | 99 | 1009.1 |
| 20260506184508 | 43 | 314 | 4.0 | 8.0 | 0.01 | 0.83 | 0.49 | 98 | 1009.0 |
| 20260506183008 | 44 | 355 | 4.0 | 9.0 | 0.01 | 0.83 | 0.49 | 98 | 1009.1 |
| 20260506181504 | 44 | 328 | 6.0 | 11.0 | 0.01 | 0.83 | 0.49 | 98 | 1008.7 |
| 20260506180005 | 44 | 279 | 3.0 | 8.0 | 0.00 | 0.94 | 0.48 | 98 | 1008.5 |
| 20260506174502 | 45 | 285 | 3.0 | 5.0 | 0.00 | 0.94 | 0.48 | 98 | 1008.3 |
| 20260506173002 | 45 | 304 | 2.0 | 8.0 | 0.00 | 0.94 | 0.48 | 98 | 1008.2 |
| 20260506171620 | 45 | 293 | 2.0 | 5.0 | 0.01 | 0.94 | 0.48 | 99 | 1008.1 |
| 20260506170100 | 45 | 315 | 3.0 | 8.0 | 0.01 | 0.94 | 0.48 | 98 | 1008.0 |
| 20260506164607 | 44 | 355 | 0.0 | 4.0 | 0.02 | 0.94 | 0.48 | 99 | 1008.0 |
| 20260506163106 | 44 | 277 | 2.0 | 5.0 | 0.03 | 0.94 | 0.48 | 99 | 1008.2 |
| 20260506161639 | 44 | 13 | 1.0 | 5.0 | 0.02 | 0.93 | 0.47 | 99 | 1008.1 |
| 20260506160108 | 44 | 348 | 0.0 | 3.0 | 0.02 | 0.93 | 0.47 | 99 | 1008.3 |
| 20260506154600 | 43 | 335 | 1.0 | 4.0 | 0.01 | 0.92 | 0.46 | 99 | 1008.3 |
| 20260506153058 | 43 | 298 | 2.0 | 5.0 | 0.01 | 0.91 | 0.45 | 98 | 1008.4 |
| 20260506151556 | 43 | 331 | 1.0 | 3.0 | 0.02 | 0.91 | 0.45 | 99 | 1008.3 |
| 20260506150056 | 43 | 317 | 1.0 | 4.0 | 0.03 | 0.91 | 0.45 | 99 | 1008.1 |
| 20260506144554 | 43 | 24 | 1.0 | 4.0 | 0.03 | 0.91 | 0.45 | 98 | 1007.8 |
| 20260506143053 | 43 | 32 | 0.0 | 3.0 | 0.03 | 0.90 | 0.44 | 99 | 1007.6 |
| 20260506141552 | 43 | 82 | 0.0 | 4.0 | 0.04 | 0.89 | 0.43 | 99 | 1007.8 |
| 20260506140053 | 43 | 52 | 1.0 | 4.0 | 0.06 | 0.88 | 0.42 | 98 | 1007.9 |
| 20260506134550 | 42 | 59 | 0.0 | 4.0 | 0.09 | 0.88 | 0.42 | 98 | 1008.0 |
| 20260506133050 | 42 | 26 | 1.0 | 4.0 | 0.11 | 0.87 | 0.41 | 98 | 1007.9 |
| 20260506131553 | 42 | 36 | 2.0 | 5.0 | 0.12 | 0.85 | 0.39 | 98 | 1008.0 |
| 20260506130101 | 42 | 351 | 1.0 | 4.0 | 0.11 | 0.82 | 0.36 | 98 | 1008.1 |
| 20260506124553 | 42 | 64 | 2.0 | 6.0 | 0.09 | 0.79 | 0.33 | 98 | 1008.0 |
| 20260506123046 | 42 | 343 | 0.0 | 5.0 | 0.06 | 0.76 | 0.30 | 98 | 1008.0 |
| 20260506121544 | 42 | 40 | 1.0 | 4.0 | 0.04 | 0.73 | 0.27 | 98 | 1007.9 |
| 20260506120043 | 42 | 44 | 3.0 | 9.0 | 0.04 | 0.71 | 0.25 | 98 | 1007.8 |
| 20260506114542 | 42 | 321 | 2.0 | 5.0 | 0.06 | 0.70 | 0.24 | 98 | 1007.8 |
| 20260506113050 | 42 | 38 | 1.0 | 6.0 | 0.07 | 0.70 | 0.24 | 98 | 1008.0 |
| 20260506111542 | 43 | 47 | 0.0 | 2.0 | 0.07 | 0.69 | 0.23 | 98 | 1008.2 |
| 20260506110051 | 43 | 55 | 2.0 | 5.0 | 0.06 | 0.67 | 0.21 | 98 | 1008.3 |
| 20260506104547 | 43 | 57 | 1.0 | 3.0 | 0.04 | 0.64 | 0.18 | 98 | 1008.2 |
| 20260506103047 | 42 | 84 | 1.0 | 5.0 | 0.05 | 0.63 | 0.17 | 98 | 1008.0 |
| 20260506101549 | 43 | 53 | 1.0 | 4.0 | 0.04 | 0.62 | 0.16 | 98 | 1008.0 |
| 20260506100057 | 43 | 87 | 1.0 | 4.0 | 0.05 | 0.61 | 0.15 | 98 | 1007.7 |
| 20260506094536 | 43 | 73 | 1.0 | 6.0 | 0.05 | 0.60 | 0.14 | 98 | 1007.8 |
| 20260506093042 | 43 | 71 | 0.0 | 4.0 | 0.04 | 0.57 | 0.12 | 98 | 1008.1 |
| 20260506091535 | 43 | 65 | 1.0 | 3.0 | 0.06 | 0.57 | 0.12 | 98 | 1008.5 |
| 20260506090032 | 43 | 92 | 0.0 | 3.0 | 0.06 | 0.57 | 0.10 | 98 | 1008.6 |
| 20260506084531 | 43 | 338 | 1.0 | 5.0 | 0.07 | 0.56 | 0.09 | 98 | 1008.8 |
| 20260506083032 | 43 | 63 | 1.0 | 7.0 | 0.06 | 0.56 | 0.08 | 97 | 1008.4 |
| 20260506081533 | 44 | 53 | 4.0 | 9.0 | 0.04 | 0.54 | 0.06 | 97 | 1008.4 |
| 20260506073034 | 46 | 46 | 1.0 | 4.0 | 0.00 | 0.50 | 0.02 | 98 | 1008.2 |
| 20260506071517 | 47 | 49 | 1.0 | 4.0 | 0.00 | 0.50 | 0.02 | 98 | 1007.9 |
| 20260506061508 | 47 | 84 | 0.0 | 2.0 | 0.01 | 0.50 | 0.02 | 98 | 1008.8 |
| 20260506044503 | 47 | 115 | 0.0 | 2.0 | 0.01 | 0.49 | 0.01 | 97 | 1009.5 |
| 20260506043110 | 47 | 115 | 0.0 | 2.0 | 0.04 | 0.49 | 0.01 | 97 | 1009.9 |
| 20260506041604 | 47 | 132 | 0.0 | 2.0 | 0.07 | 0.49 | 0.01 | 97 | 1009.6 |
| 20260506040055 | 47 | 132 | 0.0 | 2.0 | 0.08 | 0.48 | 0.48 | 97 | 1009.6 |
| 20260506034625 | 47 | 132 | 0.0 | 2.0 | 0.11 | 0.48 | 0.48 | 97 | 1009.7 |
| 20260506033101 | 47 | 132 | 0.0 | 2.0 | 0.09 | 0.45 | 0.45 | 96 | 1010.2 |
| 20260506031552 | 47 | 269 | 0.0 | 2.0 | 0.08 | 0.42 | 0.42 | 96 | 1009.7 |
| 20260506030052 | 47 | 269 | 0.0 | 2.0 | 0.09 | 0.40 | 0.40 | 96 | 1010.1 |
| 20260506024551 | 47 | 269 | 0.0 | 1.0 | 0.09 | 0.37 | 0.37 | 96 | 1010.4 |
| 20260506023108 | 47 | 269 | 0.0 | 2.0 | 0.09 | 0.36 | 0.36 | 95 | 1010.4 |
| 20260506021550 | 47 | 269 | 0.0 | 1.0 | 0.09 | 0.34 | 0.34 | 95 | 1010.5 |
| 20260506020049 | 47 | 269 | 1.0 | 4.0 | 0.07 | 0.31 | 0.31 | 94 | 1010.2 |
| 20260506014548 | 47 | 5 | 2.0 | 4.0 | 0.04 | 0.28 | 0.28 | 93 | 1009.5 |
| 20260506013048 | 47 | 5 | 0.0 | 2.0 | 0.04 | 0.27 | 0.27 | 93 | 1009.8 |
| 20260506011549 | 47 | 5 | 0.0 | 0.0 | 0.05 | 0.25 | 0.25 | 92 | 1009.9 |
| 20260506010051 | 48 | 5 | 0.0 | 2.0 | 0.05 | 0.24 | 0.24 | 90 | 1009.6 |
| 20260506004600 | 49 | 5 | 1.0 | 4.0 | 0.05 | 0.24 | 0.24 | 88 | 1009.6 |
| 20260506003045 | 50 | 343 | 2.0 | 5.0 | 0.04 | 0.23 | 0.23 | 83 | 1009.6 |
| 20260506001535 | 53 | 290 | 6.0 | 10.0 | 0.00 | 0.19 | 0.19 | 74 | 1009.6 |
| 20260506000030 | 54 | 351 | 0.0 | 8.0 | 0.00 | 0.19 | 0.19 | 73 | 1008.7 |
| 20260505234534 | 55 | 326 | 4.0 | 14.0 | 0.00 | 0.19 | 0.19 | 73 | 1008.3 |
| 20260505233019 | 57 | 315 | 6.0 | 13.0 | 0.00 | 0.19 | 0.19 | 73 | 1007.9 |